Terminal Aerodrome Forecast
Issued by NWS Sterling, VA

Current Version | Previous Version | Graphics & Text | Print | Product List | Glossary On
Versions: 1 2 3 4 5 6 7 8 9 10 11 12 13 14 15 16 17 18 19 20 21 22 23 24 25
000
FTUS41 KLWX 021736
TAFIAD
TAF
KIAD 021736Z 0218/0324 32020G26KT P6SM FEW035 SCT250
     FM022200 31004KT P6SM FEW200
     FM031500 15005KT P6SM BKN050
     FM031800 18007KT 4SM -SNPL OVC020=

USA.gov is the U.S. government's official web portal to all federal, state and local government web resources and services.